Home   Weather   France   Royan   Past weeks
Flag for France

Past Weather in Royan, Charente-Maritime, France — Yesterday and Last 2 Weeks

Currently: 37 °F. Clear. (Weather station: Cognac Airport, France). See more current weather

Past Weather in Royan — Graph

°F

Royan Temperature Yesterday

Maximum temperature yesterday: 54 °F (at 2:00 pm)
Minimum temperature yesterday: 45 °F (at 10:00 pm)
Average temperature yesterday: 48 °F

High & Low Weather Summary for the Past Weeks

 TemperatureHumidityPressure
High54 °F (Feb 1, 2:30 pm)100% (Jan 30, 2:30 am)30.77 "Hg (Jan 30, 2:30 am)
Low21 °F (Jan 30, 8:00 am)47% (Feb 2, 3:00 pm)30.18 "Hg (Jan 26, 4:00 pm)
Average40 °F80%30.47 "Hg
* Reported Jan 22 4:00 am — Feb 6 4:00 am, Royan. Weather by CustomWeather, © 2023

Note: Actual official high and low records may vary slightly from our data, if they occured in-between our weather recording intervals... More about our weather records

Royan Weather History for the Previous 24 Hours

Scroll right to see more
 ConditionsComfort  
Time TempWeatherWind HumidityBarometerVisibility
4:00 am
Mon, Feb 6
37 °FClear.8 mph81%30.63 "Hg10 mi
3:30 am37 °FClear.7 mph81%30.63 "Hg10 mi
3:00 am37 °FClear.8 mph81%30.66 "Hg10 mi
2:30 am39 °FClear.10 mph81%30.66 "Hg10 mi
2:00 am39 °FClear.9 mph75%30.66 "Hg10 mi
12:30 am41 °FClear.8 mph76%30.66 "Hg10 mi
12:00 am41 °FClear.7 mph76%30.69 "Hg10 mi
11:00 pm
Sun, Feb 5
45 °FClear.10 mph66%30.69 "Hg10 mi
10:30 pm45 °FClear.12 mph71%30.69 "Hg10 mi
10:00 pm45 °FClear.12 mph76%30.66 "Hg10 mi
9:30 pm46 °FClear.12 mph76%30.69 "Hg10 mi
9:00 pm46 °FClear.8 mph82%30.66 "Hg10 mi
8:30 pm48 °FClear.9 mph76%30.66 "Hg10 mi
8:00 pm48 °FPassing clouds.8 mph76%30.66 "HgN/A
7:00 pm52 °FMostly cloudy.8 mph62%30.66 "HgN/A
6:30 pm52 °FOvercast.6 mph62%30.66 "HgN/A
6:00 pm52 °FPassing clouds.7 mph58%30.66 "HgN/A
5:00 pm54 °FScattered clouds.12 mph54%30.69 "HgN/A
4:30 pm54 °FSunny.13 mph54%30.66 "Hg10 mi
4:00 pm54 °FSunny.16 mph51%30.69 "Hg10 mi
3:30 pm54 °FSunny.16 mph51%30.69 "Hg10 mi
3:00 pm54 °FSunny.16 mph47%30.69 "Hg10 mi
2:30 pm54 °FPassing clouds.14 mph51%30.72 "HgN/A
2:00 pm54 °FPassing clouds.14 mph51%30.72 "HgN/A
1:00 pm52 °FPassing clouds.12 mph54%30.74 "HgN/A
12:30 pm50 °FScattered clouds.13 mph62%30.74 "HgN/A
12:00 pm48 °FPartly sunny.12 mph66%30.77 "HgN/A
11:30 am48 °FOvercast.13 mph66%30.77 "HgN/A
11:00 am48 °FOvercast.14 mph66%30.77 "HgN/A
10:30 am46 °FOvercast.10 mph71%30.77 "HgN/A
10:00 am46 °FOvercast.9 mph71%30.74 "HgN/A
9:30 am46 °FOvercast.10 mph71%30.74 "HgN/A
9:00 am46 °FOvercast.9 mph76%30.74 "HgN/A
8:30 am46 °FOvercast.9 mph76%30.74 "HgN/A
8:00 am46 °FOvercast.12 mph76%30.74 "HgN/A
7:00 am46 °FOvercast.13 mph82%30.72 "HgN/A
6:30 am46 °FOvercast.9 mph82%30.72 "HgN/A
6:00 am46 °FOvercast.3 mph82%30.72 "HgN/A
5:30 am46 °FOvercast.3 mph82%30.69 "HgN/A
5:00 am46 °FOvercast.5 mph82%30.69 "HgN/A
Weather by CustomWeather, © 2023

See weather overview